AFL2505 URWW-URSS

Flight info

Callsign AFL2505
Flight time 1h 16m
Altitude 37000
Route GAMTU G364 OBETI G900 ER B145 SUDIR N166 ADNET W79 BINOL
Aircraft B738/M-V/N

Departure

Time 2026-04-26 16:46
Airport Volgograd International Airport (URWW)

Arrival

Time 2026-04-26 18:03
Airport Sochi International Airport (URSS)
Time Latitude Longitude Altitude Speed Heading
2026-04-26 16:28 48.79049 44.35393 485 ft 0 kts 340°
2026-04-26 16:38 48.79040 44.35398 479 ft 4 kts 340°
2026-04-26 16:39 48.79017 44.35411 480 ft 4 kts 330°
2026-04-26 16:39 48.79003 44.35435 477 ft 4 kts 269°
2026-04-26 16:39 48.79008 44.35469 475 ft 1 kts 249°
2026-04-26 16:39 48.79009 44.35475 475 ft 0 kts 249°
2026-04-26 16:42 48.79008 44.35471 475 ft 3 kts 249°
2026-04-26 16:42 48.78985 44.35380 483 ft 13 kts 249°
2026-04-26 16:42 48.78954 44.35254 484 ft 13 kts 249°
2026-04-26 16:43 48.78921 44.35134 478 ft 12 kts 233°
2026-04-26 16:43 48.78842 44.35132 479 ft 12 kts 162°
2026-04-26 16:43 48.78763 44.35171 481 ft 12 kts 161°
2026-04-26 16:43 48.78691 44.35207 479 ft 4 kts 161°
2026-04-26 16:44 48.78685 44.35210 481 ft 0 kts 161°
2026-04-26 16:44 48.78684 44.35210 481 ft 1 kts 161°
2026-04-26 16:44 48.78622 44.35242 480 ft 16 kts 161°
2026-04-26 16:44 48.78553 44.35217 484 ft 8 kts 233°
2026-04-26 16:45 48.78536 44.35166 478 ft 0 kts 245°
2026-04-26 16:45 48.78467 44.34948 478 ft 56 kts 244°
2026-04-26 16:46 48.78195 44.34097 470 ft 120 kts 244°
2026-04-26 16:46 48.77757 44.32718 526 ft 163 kts 242°
2026-04-26 16:46 48.77250 44.31139 1027 ft 169 kts 242°
2026-04-26 16:46 48.76712 44.29557 1719 ft 168 kts 243°
2026-04-26 16:47 48.76213 44.28012 2480 ft 167 kts 245°
2026-04-26 16:47 48.75689 44.26321 2703 ft 190 kts 245°
2026-04-26 16:47 48.75092 44.24401 2896 ft 210 kts 245°
2026-04-26 16:47 48.74273 44.22525 3285 ft 221 kts 222°
2026-04-26 16:48 48.72864 44.21562 3845 ft 230 kts 192°
2026-04-26 16:48 48.71248 44.21797 4427 ft 240 kts 168°
2026-04-26 16:48 48.69637 44.22661 4831 ft 255 kts 163°
2026-04-26 16:48 48.67945 44.23695 5326 ft 267 kts 162°
2026-04-26 16:49 48.66210 44.24770 6031 ft 271 kts 162°
2026-04-26 16:49 48.64449 44.25844 6723 ft 275 kts 162°
2026-04-26 16:49 48.62682 44.26901 7402 ft 279 kts 163°
2026-04-26 16:49 48.60859 44.27978 8120 ft 283 kts 163°
2026-04-26 16:50 48.59005 44.29068 8849 ft 288 kts 163°
2026-04-26 16:50 48.57102 44.30035 9565 ft 288 kts 176°
2026-04-26 16:50 48.55144 44.29867 10235 ft 280 kts 203°
2026-04-26 16:50 48.53421 44.28441 10495 ft 291 kts 226°
2026-04-26 16:51 48.52037 44.26091 10697 ft 310 kts 235°
2026-04-26 16:51 48.50697 44.23447 11093 ft 323 kts 236°
2026-04-26 16:51 48.49342 44.20705 11736 ft 328 kts 237°
2026-04-26 16:51 48.47969 44.17929 12464 ft 332 kts 237°
2026-04-26 16:52 48.46572 44.15124 13187 ft 337 kts 237°
2026-04-26 16:52 48.45632 44.13249 13642 ft 341 kts 237°
2026-04-26 16:52 48.43716 44.09447 14546 ft 345 kts 237°
2026-04-26 16:52 48.42255 44.06565 15303 ft 347 kts 237°
2026-04-26 16:53 48.40778 44.03660 16015 ft 351 kts 237°
2026-04-26 16:53 48.39287 44.00732 16713 ft 354 kts 237°
2026-04-26 16:53 48.37781 43.97779 17406 ft 358 kts 237°
2026-04-26 16:53 48.36257 43.94793 18109 ft 361 kts 237°
2026-04-26 16:54 48.34715 43.91778 18701 ft 364 kts 237°
2026-04-26 16:54 48.33166 43.88754 19334 ft 366 kts 237°
2026-04-26 16:54 48.31608 43.85714 19961 ft 368 kts 237°
2026-04-26 16:54 48.30041 43.82661 20576 ft 370 kts 237°
2026-04-26 16:55 48.28462 43.79587 21177 ft 373 kts 237°
2026-04-26 16:55 48.26875 43.76500 21757 ft 375 kts 237°
2026-04-26 16:55 48.25275 43.73392 22342 ft 377 kts 237°
2026-04-26 16:55 48.23665 43.70266 22906 ft 380 kts 237°
2026-04-26 16:56 48.20410 43.63958 23927 ft 384 kts 238°
2026-04-26 16:56 48.18962 43.60610 24366 ft 382 kts 246°
2026-04-26 16:56 48.17727 43.57084 24812 ft 383 kts 248°
2026-04-26 16:57 48.16531 43.53504 25245 ft 385 kts 248°
2026-04-26 16:57 48.15331 43.49904 25677 ft 387 kts 248°
2026-04-26 16:57 48.12877 43.42670 26515 ft 392 kts 247°
2026-04-26 16:58 48.11620 43.39026 26904 ft 394 kts 247°
2026-04-26 16:58 48.10782 43.36611 27160 ft 396 kts 247°
2026-04-26 16:58 48.07794 43.28053 28038 ft 401 kts 246°
2026-04-26 16:59 48.06495 43.24344 28409 ft 404 kts 246°
2026-04-26 16:59 48.03869 43.16863 29096 ft 408 kts 246°
2026-04-26 17:00 48.01211 43.09308 29756 ft 412 kts 246°
2026-04-26 17:00 47.98525 43.01694 30296 ft 416 kts 246°
2026-04-26 17:00 47.97174 42.97875 30622 ft 416 kts 246°
2026-04-26 17:01 47.95818 42.94064 31021 ft 414 kts 246°
2026-04-26 17:01 47.94457 42.90291 31405 ft 413 kts 246°
2026-04-26 17:01 47.93088 42.86523 31731 ft 413 kts 245°
2026-04-26 17:01 47.91733 42.82809 32064 ft 412 kts 245°
2026-04-26 17:02 47.90363 42.79055 32439 ft 411 kts 245°
2026-04-26 17:02 47.89000 42.75322 32786 ft 410 kts 245°
2026-04-26 17:02 47.87635 42.71584 33097 ft 410 kts 245°
2026-04-26 17:02 47.86274 42.67858 33428 ft 409 kts 245°
2026-04-26 17:03 47.84912 42.64134 33774 ft 408 kts 245°
2026-04-26 17:03 47.83553 42.60422 34056 ft 408 kts 245°
2026-04-26 17:03 47.82195 42.56719 34279 ft 408 kts 245°
2026-04-26 17:03 47.80829 42.52996 34462 ft 410 kts 245°
2026-04-26 17:04 47.79461 42.49272 34687 ft 410 kts 245°
2026-04-26 17:04 47.78089 42.45546 34929 ft 410 kts 245°
2026-04-26 17:04 47.76735 42.41873 35130 ft 411 kts 245°
2026-04-26 17:04 47.75357 42.38140 35342 ft 411 kts 245°
2026-04-26 17:05 47.73979 42.34413 35554 ft 412 kts 245°
2026-04-26 17:05 47.72597 42.30679 35775 ft 412 kts 245°
2026-04-26 17:05 47.71212 42.26944 35961 ft 413 kts 245°
2026-04-26 17:05 47.69823 42.23203 36117 ft 415 kts 244°
2026-04-26 17:06 47.68426 42.19445 36308 ft 415 kts 244°
2026-04-26 17:06 47.67044 42.15734 36521 ft 415 kts 244°
2026-04-26 17:06 47.65644 42.11978 36737 ft 415 kts 244°
2026-04-26 17:06 47.64242 42.08223 36809 ft 418 kts 244°
2026-04-26 17:07 47.61419 42.00676 36808 ft 417 kts 244°
2026-04-26 17:07 47.58609 41.93192 36803 ft 413 kts 244°
2026-04-26 17:08 47.55820 41.85778 36804 ft 410 kts 244°
2026-04-26 17:08 47.53045 41.78421 36801 ft 408 kts 244°
2026-04-26 17:09 47.50744 41.72330 36809 ft 408 kts 244°
2026-04-26 17:09 47.47404 41.63895 36800 ft 411 kts 237°
2026-04-26 17:10 47.43406 41.57737 36802 ft 421 kts 222°
2026-04-26 17:10 47.38672 41.52573 36804 ft 424 kts 221°
2026-04-26 17:11 47.33916 41.47467 36807 ft 426 kts 221°
2026-04-26 17:11 47.29120 41.42279 36809 ft 428 kts 221°
2026-04-26 17:12 47.21918 41.34457 36810 ft 429 kts 221°
2026-04-26 17:13 47.14694 41.26629 36802 ft 429 kts 221°
2026-04-26 17:14 47.07517 41.18880 36804 ft 428 kts 221°
2026-04-26 17:14 47.00325 41.11142 36808 ft 426 kts 221°
2026-04-26 17:15 46.93162 41.03460 36810 ft 424 kts 221°
2026-04-26 17:16 46.88406 40.98373 36813 ft 423 kts 220°
2026-04-26 17:16 46.83660 40.93306 36813 ft 422 kts 220°
2026-04-26 17:17 46.78915 40.88252 36819 ft 422 kts 221°
2026-04-26 17:17 46.74225 40.83132 36815 ft 421 kts 221°
2026-04-26 17:18 46.69582 40.78019 36820 ft 421 kts 221°
2026-04-26 17:18 46.64898 40.72890 36818 ft 421 kts 221°
2026-04-26 17:19 46.57807 40.65280 36811 ft 425 kts 216°
2026-04-26 17:19 46.52648 40.61008 36813 ft 427 kts 214°
2026-04-26 17:20 46.49175 40.58184 36822 ft 427 kts 214°
2026-04-26 17:20 46.42278 40.52516 36819 ft 428 kts 214°
2026-04-26 17:21 46.37098 40.48250 36823 ft 428 kts 214°
2026-04-26 17:21 46.31552 40.45038 36832 ft 437 kts 200°
2026-04-26 17:22 46.25638 40.42857 36822 ft 438 kts 199°
2026-04-26 17:22 46.19719 40.40688 36826 ft 438 kts 199°
2026-04-26 17:23 46.13804 40.38473 36821 ft 438 kts 199°
2026-04-26 17:23 46.07912 40.36248 36823 ft 435 kts 199°
2026-04-26 17:24 46.03109 40.34440 36814 ft 424 kts 199°
2026-04-26 17:24 45.96479 40.31942 36829 ft 424 kts 199°
2026-04-26 17:25 45.91719 40.30152 36836 ft 425 kts 199°
2026-04-26 17:25 45.85979 40.28000 36836 ft 426 kts 199°
2026-04-26 17:26 45.80225 40.25849 36837 ft 428 kts 199°
2026-04-26 17:26 45.74573 40.23289 36833 ft 423 kts 209°
2026-04-26 17:27 45.69289 40.19567 36838 ft 423 kts 210°
2026-04-26 17:27 45.64005 40.15824 36842 ft 424 kts 210°
2026-04-26 17:28 45.58700 40.12128 36844 ft 424 kts 209°
2026-04-26 17:28 45.53384 40.08452 36848 ft 425 kts 209°
2026-04-26 17:29 45.48963 40.05400 36848 ft 425 kts 209°
2026-04-26 17:29 45.42634 40.01569 36841 ft 429 kts 199°
2026-04-26 17:30 45.36693 40.00262 36849 ft 434 kts 191°
2026-04-26 17:30 45.30690 39.99342 36856 ft 434 kts 191°
2026-04-26 17:31 45.24694 39.98384 36850 ft 433 kts 191°
2026-04-26 17:31 45.18709 39.97394 36850 ft 433 kts 191°
2026-04-26 17:32 45.12706 39.96393 36856 ft 433 kts 191°
2026-04-26 17:32 45.06727 39.95399 36858 ft 433 kts 191°
2026-04-26 17:33 45.00749 39.94408 36863 ft 433 kts 191°
2026-04-26 17:34 44.91807 39.92930 36859 ft 433 kts 191°
2026-04-26 17:34 44.85806 39.91945 36863 ft 433 kts 191°
2026-04-26 17:35 44.79861 39.90973 36863 ft 433 kts 191°
2026-04-26 17:35 44.73871 39.89994 36868 ft 433 kts 191°
2026-04-26 17:36 44.67847 39.89011 36558 ft 436 kts 191°
2026-04-26 17:36 44.61906 39.88047 36623 ft 432 kts 191°
2026-04-26 17:37 44.55888 39.87068 36614 ft 436 kts 191°
2026-04-26 17:37 44.49827 39.86085 36620 ft 439 kts 190°
2026-04-26 17:38 44.40717 39.84613 36616 ft 442 kts 190°
2026-04-26 17:38 44.34548 39.84881 36616 ft 450 kts 172°
2026-04-26 17:39 44.28449 39.87222 36618 ft 453 kts 167°
2026-04-26 17:39 44.22433 39.89718 35946 ft 456 kts 167°
2026-04-26 17:40 44.19389 39.90953 35086 ft 453 kts 168°
2026-04-26 17:40 44.17383 39.91757 34530 ft 451 kts 168°
2026-04-26 17:40 44.13368 39.93350 33259 ft 447 kts 168°
2026-04-26 17:40 44.10377 39.94529 32209 ft 446 kts 168°
2026-04-26 17:41 44.07394 39.95703 31187 ft 445 kts 168°
2026-04-26 17:41 44.04426 39.96871 30215 ft 442 kts 168°
2026-04-26 17:41 44.01472 39.98034 29125 ft 439 kts 168°
2026-04-26 17:41 43.98540 39.99188 28028 ft 435 kts 168°
2026-04-26 17:42 43.95673 40.00315 27016 ft 430 kts 168°
2026-04-26 17:42 43.92796 40.01448 26022 ft 427 kts 168°
2026-04-26 17:42 43.89945 40.02572 25026 ft 424 kts 168°
2026-04-26 17:42 43.87113 40.03688 24096 ft 420 kts 168°
2026-04-26 17:43 43.84308 40.04791 23108 ft 417 kts 168°
2026-04-26 17:43 43.81533 40.05882 22094 ft 413 kts 168°
2026-04-26 17:43 43.78815 40.06951 21581 ft 398 kts 168°
2026-04-26 17:43 43.76229 40.07968 21111 ft 384 kts 168°
2026-04-26 17:44 43.73692 40.08963 20681 ft 371 kts 168°
2026-04-26 17:44 43.71228 40.09922 20271 ft 364 kts 171°
2026-04-26 17:44 43.68755 40.10227 19863 ft 352 kts 189°
2026-04-26 17:44 43.66444 40.09466 19508 ft 342 kts 205°
2026-04-26 17:45 43.64287 40.08122 19165 ft 337 kts 208°
2026-04-26 17:45 43.62181 40.06740 18794 ft 334 kts 208°
2026-04-26 17:45 43.60081 40.05387 18443 ft 331 kts 207°
2026-04-26 17:45 43.57995 40.04064 18062 ft 328 kts 207°
2026-04-26 17:46 43.55958 40.02785 17682 ft 325 kts 207°
2026-04-26 17:46 43.53909 40.01502 17320 ft 322 kts 207°
2026-04-26 17:46 43.51880 40.00232 16951 ft 318 kts 207°
2026-04-26 17:46 43.49861 39.98969 16470 ft 320 kts 207°
2026-04-26 17:47 43.47829 39.97700 15971 ft 321 kts 207°
2026-04-26 17:47 43.46446 39.96837 15620 ft 322 kts 207°
2026-04-26 17:47 43.43695 39.95295 15083 ft 319 kts 202°
2026-04-26 17:47 43.41612 39.94341 14973 ft 313 kts 200°
2026-04-26 17:48 43.39533 39.93426 14919 ft 313 kts 200°
2026-04-26 17:48 43.37486 39.92527 14903 ft 304 kts 200°
2026-04-26 17:48 43.35516 39.91655 14892 ft 290 kts 201°
2026-04-26 17:48 43.33640 39.90818 14895 ft 277 kts 201°
2026-04-26 17:49 43.31854 39.90015 14891 ft 264 kts 201°
2026-04-26 17:49 43.30155 39.89249 14896 ft 251 kts 201°
2026-04-26 17:49 43.28547 39.88522 14898 ft 237 kts 201°
2026-04-26 17:49 43.27009 39.87825 14673 ft 234 kts 202°
2026-04-26 17:50 43.25363 39.87071 13659 ft 260 kts 201°
2026-04-26 17:50 43.23589 39.86261 12621 ft 277 kts 200°
2026-04-26 17:50 43.21714 39.85409 11620 ft 291 kts 200°
2026-04-26 17:50 43.19755 39.84522 10636 ft 302 kts 199°
2026-04-26 17:51 43.17731 39.83608 9674 ft 310 kts 199°
2026-04-26 17:51 43.15682 39.82683 9130 ft 303 kts 199°
2026-04-26 17:51 43.13726 39.81800 8849 ft 288 kts 199°
2026-04-26 17:51 43.11890 39.80971 8578 ft 275 kts 199°
2026-04-26 17:52 43.10112 39.80169 8311 ft 264 kts 199°
2026-04-26 17:52 43.08373 39.79385 7933 ft 265 kts 199°
2026-04-26 17:52 43.06662 39.78372 7409 ft 272 kts 216°
2026-04-26 17:52 43.05403 39.76429 6935 ft 278 kts 241°
2026-04-26 17:53 43.04909 39.73855 6455 ft 286 kts 268°
2026-04-26 17:53 43.05232 39.71148 5978 ft 292 kts 284°
2026-04-26 17:53 43.05841 39.68485 5486 ft 295 kts 287°
2026-04-26 17:54 43.07127 39.63164 4474 ft 290 kts 287°
2026-04-26 17:54 43.07750 39.60535 3974 ft 293 kts 287°
2026-04-26 17:54 43.08743 39.58139 3487 ft 290 kts 315°
2026-04-26 17:54 43.10412 39.56786 3262 ft 278 kts 341°
2026-04-26 17:55 43.12294 39.56470 3005 ft 269 kts
2026-04-26 17:55 43.14068 39.57077 2737 ft 259 kts 24°
2026-04-26 17:55 43.15580 39.58369 2484 ft 255 kts 43°
2026-04-26 17:55 43.16682 39.60258 2254 ft 255 kts 57°
2026-04-26 17:56 43.17658 39.62295 2078 ft 258 kts 58°
2026-04-26 17:56 43.19600 39.66426 2012 ft 255 kts 58°
2026-04-26 17:57 43.21534 39.70532 2009 ft 257 kts 58°
2026-04-26 17:57 43.22508 39.72593 2017 ft 259 kts 58°
2026-04-26 17:57 43.23483 39.74652 2008 ft 254 kts 58°
2026-04-26 17:57 43.24423 39.76639 1985 ft 242 kts 58°
2026-04-26 17:58 43.27014 39.82000 1988 ft 211 kts 47°
2026-04-26 17:59 43.29475 39.83876 1999 ft 196 kts 31°
2026-04-26 17:59 43.30624 39.84771 1983 ft 182 kts 31°
2026-04-26 17:59 43.31706 39.85599 2003 ft 176 kts 31°
2026-04-26 17:59 43.32777 39.86410 2000 ft 176 kts 30°
2026-04-26 18:00 43.33845 39.87216 1992 ft 173 kts 30°
2026-04-26 18:00 43.34902 39.88014 1860 ft 169 kts 30°
2026-04-26 18:00 43.35893 39.88761 1649 ft 155 kts 30°
2026-04-26 18:00 43.36800 39.89445 1435 ft 144 kts 30°
2026-04-26 18:01 43.37673 39.90105 1265 ft 144 kts 30°
2026-04-26 18:01 43.38557 39.90773 1081 ft 145 kts 29°
2026-04-26 18:01 43.39433 39.91434 904 ft 142 kts 28°
2026-04-26 18:01 43.40279 39.92077 762 ft 137 kts 29°
2026-04-26 18:02 43.41140 39.92725 623 ft 143 kts 28°
2026-04-26 18:02 43.41421 39.92934 552 ft 141 kts 29°
2026-04-26 18:02 43.42796 39.93967 250 ft 133 kts 28°
2026-04-26 18:02 43.43618 39.94596 71 ft 133 kts 29°
2026-04-26 18:03 43.44342 39.95144 81 ft 104 kts 29°
2026-04-26 18:03 43.44833 39.95515 88 ft 39 kts 28°
2026-04-26 18:03 43.44949 39.95579 91 ft 13 kts 352°
2026-04-26 18:03 43.45035 39.95527 90 ft 14 kts 335°
2026-04-26 18:04 43.45049 39.95518 90 ft 0 kts 335°
2026-04-26 18:05 43.45017 39.95344 89 ft 15 kts 245°
2026-04-26 18:05 43.44972 39.95209 85 ft 16 kts 245°
2026-04-26 18:05 43.44918 39.95063 82 ft 18 kts 244°
2026-04-26 18:05 43.44868 39.94914 74 ft 17 kts 245°
2026-04-26 18:06 43.44818 39.94767 67 ft 17 kts 245°
2026-04-26 18:06 43.44769 39.94626 68 ft 16 kts 244°
2026-04-26 18:06 43.44724 39.94495 72 ft 10 kts 245°
2026-04-26 18:06 43.44720 39.94444 72 ft 2 kts 304°
2026-04-26 18:07 43.44753 39.94413 70 ft 9 kts 334°
2026-04-26 18:07 43.44792 39.94388 69 ft 6 kts 334°
2026-04-26 18:07 43.44804 39.94380 69 ft 1 kts 334°
2026-04-26 18:07 43.44806 39.94378 69 ft 1 kts 334°
2026-04-26 18:08 43.44814 39.94373 74 ft 0 kts 334°